Location: STAR School
(35.3054°N, 111.2976°W)
Time: 10:13:08
(UTC-07:00)

UKube-1 - Visible Passes

Search period start: 19 April 2019 00:00
Search period end: 29 April 2019 00:00
Orbit: 612 x 621 km, 98.4° (Epoch: 19 April)

Date Brightness Start Highest point End Pass type
(mag) Time Alt. Az. Time Alt. Az. Time Alt. Az.
19 Apr ? 03:11:45 10° ESE 03:15:09 24° ENE 03:18:34 10° NNE visible
19 Apr ? 04:48:16 14° SW 04:51:00 24° W 04:54:31 10° NW visible
20 Apr ? 03:27:22 10° SE 03:31:15 35° ENE 03:35:09 10° N visible
20 Apr ? 05:04:40 10° SW 05:07:18 16° W 05:09:58 10° NW visible
21 Apr ? 03:43:25 11° SSE 03:47:23 55° ENE 03:51:34 10° N visible
22 Apr ? 03:59:32 11° SSE 04:03:33 86° ENE 04:07:51 10° NNW visible
23 Apr ? 02:43:36 10° ENE 02:44:20 10° ENE 02:45:04 10° NE visible
23 Apr ? 04:15:38 11° S 04:19:45 60° WSW 04:23:59 10° NNW visible
24 Apr ? 02:57:47 10° ESE 03:00:21 16° ENE 03:02:55 10° NNE visible
24 Apr ? 04:32:01 10° SSW 04:35:59 38° W 04:39:59 10° NNW visible
25 Apr ? 03:13:01 10° ESE 03:16:24 23° ENE 03:19:48 10° NNE visible
25 Apr ? 04:48:45 10° SSW 04:52:15 25° W 04:55:46 10° NW visible
26 Apr ? 03:28:37 10° SE 03:32:30 35° ENE 03:36:24 10° N visible
26 Apr ? 05:05:53 10° SW 05:08:33 16° W 05:11:14 10° NW visible
27 Apr ? 03:44:29 10° SSE 03:48:37 54° ENE 03:52:48 10° N visible
28 Apr ? 04:00:31 10° SSE 04:04:47 85° ENE 04:09:05 10° NNW visible
